Torna al catalogo

CZ-6A DEB

AttivoSSO
NORAD 54617·DEBRIS·🇨🇳 China

Lanciato Nov 11, 2022 da Taiyuan Satellite Launch Center

Loading…

Prossimi Passaggi (prossime 24 ore)

TLE

AggiornatoSource: Space-Track

Epoca: Sep 14, 2026, 00:44 UTC

1 54617U 22151NT  26257.03094794  .00001122  00000-0  54462-3 0  9992
2 54617  98.8179 272.4125 0026389  55.7864 304.5808 14.20174361197210

Traccia CZ-6A DEB in tempo reale con AllMySat

Download on the App Store